Regional Weather Roundup
Issued by NWS Cleveland, OH

Home | Current Version | Previous Version | Text Only | Print | Product List | Glossary Off
Versions: 1 2 3 4 5 6 7 8 9 10 11 12 13 14 15 16 17 18 19 20 21 22 23 24 25 26 27 28 29 30 31 32 33 34 35 36 37 38 39 40 41 42 43 44 45 46 47 48 49 50

000
ASUS41 KCLE 230002
RWRCLE
OHIO REGIONAL WEATHER ROUNDUP
NATIONAL WEATHER SERVICE CLEVELAND, OH
800 PM EDT SAT APR 22 2017

NOTE: "FAIR" INDICATES FEW OR NO CLOUDS BELOW 12,000 FEET WITH NO
SIGNIFICANT WEATHER AND/OR OBSTRUCTIONS TO VISIBILITY.

OHZ001>008-015>018-024>027-034-035-043-044-230100-
   NORTHWEST OHIO

CITY           SKY/WX    TMP DP  RH WIND       PRES   REMARKS
DEFIANCE       PTCLDY    54  35  48 E5        30.10F
FINDLAY        PTCLDY    52  30  43 NE9       30.10R
TOLEDO EXPRESS CLOUDY    53  33  46 E7        30.11R
TOLEDO EXEC    CLOUDY    52  35  52 E5        30.12S
LIMA           PTCLDY    51  30  44 NE10G18   30.09R
$$

OHZ009>014-019>023-028>033-038-089-230100-
   NORTHEAST OHIO

CITY           SKY/WX    TMP DP  RH WIND       PRES   REMARKS
CLE-HOPKINS    MOCLDY    50  34  54 N5        30.13R
CLE-LAKEFRONT  PTCLDY    46  38  73 W3        30.10R
CUY CO. ARPT   MOCLDY    48  37  66 N8        30.10S
LORAIN-ELYRIA  CLOUDY    48  34  58 NE6       30.11R
ASHTABULA      PTCLDY    48  35  60 N3        30.09S
AKRON-CANTON   MOCLDY    49  32  52 NE9       30.08R
WOOSTER        MOCLDY    48  34  58 N7        30.08R
MANSFIELD      CLOUDY    47  34  60 NE10      30.08R
YOUNGSTOWN     CLOUDY    49  34  56 N8        30.07S
$$

OHZ042-051>053-060>062-070>072-077>081-230100-
  SOUTHWEST OHIO

CITY           SKY/WX    TMP DP  RH WIND       PRES   REMARKS
CINC-COVINGTON PTCLDY    54  35  48 NE14      30.01R
CINC-LUNKEN    MOCLDY    54  39  57 NE12      30.03R
HAMILTON       PTCLDY    54  35  48 NE12G21   30.05R
DAYTON         MOCLDY    51  34  52 NE16      30.06S
WRIGHT-PAT AFB NOT AVBL
DAYTON GENERAL PTCLDY    51  33  50 NE17      30.03S
WILMINGTON     MOCLDY    49  38  65 N12       30.02F
$$

OHZ036-037-039>041-045>050-054>059-063>069-073>076-082>088-230100-
  CENTRAL AND SOUTHEAST OHIO

CITY           SKY/WX    TMP DP  RH WIND       PRES   REMARKS
COLUMBUS       CLOUDY    52  35  52 NE9       30.06R
OSU AIRPORT    PTCLDY    50  37  61 NE15      30.06R
BOLTON FIELD   NOT AVBL
RICKENBACK AFB CLOUDY    51  36  55 NE13      30.04S
NEWARK         CLOUDY    51  35  54 VRB7      30.05S
MARION         CLOUDY    49  34  56 NE14G25   30.09S
LANCASTER      CLOUDY    53  38  56 N9        30.05R
ZANESVILLE     CLOUDY    53  36  52 N6        30.04R
NEW PHILLY     NOT AVBL
$$




USA.gov is the U.S. government's official web portal to all federal, state and local government web resources and services.